Location: Unspecified
(0.0000°N, 0.0000°E)
Time: 02:21:01
(UTC+00:00)

deb OV3-4 - Visible Passes

Search period start: 12 April 2026 00:00
Search period end: 22 April 2026 00:00
Orbit: 581 x 4210 km, 40.6° (Epoch: 7 April)

Date Brightness Start Highest point End Pass type
(mag) Time Alt. Az. Time Alt. Az. Time Alt. Az.
12 Apr ? 18:56:58 10° NNW 19:08:37 39° NNE 19:12:27 24° E visible
12 Apr ? 21:26:02 10° WNW 21:28:46 18° W 21:28:46 18° W visible
13 Apr ? 04:55:29 10° SSE 04:58:33 11° SE 05:02:05 10° ESE visible
13 Apr ? 20:00:58 10° NW 20:11:54 84° SW 20:12:04 83° S visible
14 Apr ? 18:36:46 10° NNW 18:49:53 46° NE 18:55:22 18° E visible
14 Apr ? 21:06:57 10° WNW 21:11:42 22° WSW 21:11:42 22° WSW visible
15 Apr ? 04:36:16 10° SSE 04:39:31 12° SE 04:43:21 10° ESE visible
15 Apr ? 19:41:13 10° NW 19:53:02 75° SW 19:55:01 51° SSE visible
16 Apr ? 05:33:17 10° SSW 05:42:03 34° SE 05:57:26 10° ENE visible
16 Apr ? 18:16:30 10° NW 18:31:04 54° NE 18:38:19 10° ESE visible
16 Apr ? 20:47:50 10° WNW 20:54:39 23° SW 20:54:39 23° SW visible
17 Apr ? 04:17:06 10° SSE 04:20:29 12° SE 04:24:33 10° ESE visible
17 Apr ? 19:21:25 10° NW 19:34:07 67° SW 19:37:57 29° SSE visible
18 Apr ? 05:14:30 10° SSW 05:22:46 36° SE 05:37:35 10° ENE visible
18 Apr ? 20:28:39 10° W 20:35:50 22° SW 20:37:35 20° SSW visible
19 Apr ? 03:57:59 10° SSE 04:01:27 12° SE 04:05:43 10° ESE visible
19 Apr ? 19:01:34 10° NW 19:15:07 61° SW 19:20:52 16° SSE visible
20 Apr ? 04:55:45 10° SSW 05:03:31 38° SE 05:17:44 10° ENE visible
20 Apr ? 20:09:27 10° W 20:16:50 21° SW 20:20:28 15° SSW visible
21 Apr ? 03:38:56 10° SSE 03:42:26 13° SE 03:46:50 10° ESE visible
21 Apr ? 18:41:39 10° WNW 18:56:02 56° SW 19:03:17 10° SSE visible
